Weather History for Tucson, AZ

Change the Weather History Date:

Wednesday, May 30, 2012

  Actual Average Record
Temperature  
Mean Temperature 80 °F 80 °F  
Max Temperature 97 °F 96 °F 110 °F (1910)
Min Temperature 62 °F 64 °F 42 °F (1909)
Degree Days  
Heating Degree Days 0 0  
Month to date heating degree days 0 3  
Since 1 July heating degree days 1446 1509  
Cooling Degree Days 15 15  
Month to date cooling degree days 424 332  
Year to date cooling degree days 659 486  
Growing Degree Days 30 (Base 50)    
Moisture  
Dew Point 14 °F    
Average Humidity 10    
Maximum Humidity 16    
Minimum Humidity 4    
Precipitation  
Precipitation 0.00 in 0.00 in 0.44 in (1986)
Month to date precipitation T 0.22  
Year to date precipitation 0.68 3.06  
Snow  
Snow 0.00 in - - ()
Month to date snowfall 0.0  
Snow Depth 0.00 in    
Sea Level Pressure  
Sea Level Pressure 29.81 in    
Wind  
Wind Speed 6 mph (WSW)    
Max Wind Speed 15 mph    
Max Gust Speed 20 mph    
Visibility 10 miles    
Events      
T = Trace of Precipitation, MM = Missing Value Source: NWS Daily Summary

Daily Weather History Graph

Daily Weather History Graph

Search for Another Location

Airport:

Trip Planner

Search our weather history database for the weather conditions in past years. The results will help you decide how hot, cold, wet, or windy it might be!

Date:

Astronomy

May. 30, 2012 Rise Set
Actual Time 5:18 AM MST 7:24 PM MST
Civil Twilight 4:50 AM MST 7:52 PM MST
Nautical Twilight 4:17 AM MST 8:26 PM MST
Astronomical Twilight 3:40 AM MST 9:02 PM MST
Moon 2:22 PM MST (5/30) 1:27 AM MST (5/30)
Length of Visible Light 15h 01m
Length of Day
14h 05m
Waxing Gibbous, 71% of the Moon is Illuminated
May 30
Waxing Gibbous
Jun 4
Full
Jun 11
Last Quarter
Jun 19
New
Jun 26
First Quarter

Hourly Weather History & Observations

Time (MST) Temp. Dew Point Humidity Pressure Visibility Wind Dir Wind Speed Gust Speed Precip Events Conditions
12:53 AM 70.0 °F 10.0 °F 10% 29.84 in 10.0 mi SSE 4.6 mph - N/A   Clear
1:53 AM 69.1 °F 12.0 °F 11% 29.83 in 10.0 mi SE 6.9 mph - N/A   Clear
2:53 AM 66.0 °F 14.0 °F 13% 29.84 in 10.0 mi SSE 8.1 mph - N/A   Clear
3:53 AM 64.9 °F 15.1 °F 15% 29.85 in 10.0 mi SSE 5.8 mph - N/A   Clear
4:53 AM 63.0 °F 15.1 °F 16% 29.86 in 10.0 mi SSE 5.8 mph - N/A   Clear
5:53 AM 63.0 °F 15.1 °F 16% 29.87 in 10.0 mi SSE 5.8 mph - N/A   Clear
6:53 AM 66.9 °F 18.0 °F 15% 29.88 in 10.0 mi South 5.8 mph - N/A   Clear
7:53 AM 72.0 °F 19.9 °F 14% 29.89 in 10.0 mi Calm Calm - N/A   Clear
8:53 AM 78.1 °F 19.0 °F 11% 29.89 in 10.0 mi Variable 3.5 mph - N/A   Clear
9:53 AM 84.0 °F 19.9 °F 9% 29.88 in 10.0 mi NNW 5.8 mph - N/A   Clear
10:53 AM 87.1 °F 17.1 °F 8% 29.86 in 10.0 mi Variable 4.6 mph - N/A   Clear
11:53 AM 89.1 °F 15.1 °F 6% 29.85 in 10.0 mi Variable 3.5 mph - N/A   Clear
12:53 PM 93.0 °F 10.0 °F 5% 29.82 in 10.0 mi West 6.9 mph 18.4 mph N/A   Clear
1:53 PM 95.0 °F 9.0 °F 4% 29.80 in 10.0 mi WSW 9.2 mph - N/A   Clear
2:53 PM 95.0 °F 6.1 °F 4% 29.78 in 10.0 mi West 8.1 mph 16.1 mph N/A   Clear
3:53 PM 95.0 °F 8.1 °F 4% 29.76 in 10.0 mi NW 5.8 mph - N/A   Clear
4:53 PM 95.0 °F 10.9 °F 4% 29.75 in 10.0 mi West 5.8 mph - N/A   Clear
5:53 PM 93.9 °F 12.0 °F 5% 29.74 in 10.0 mi NW 13.8 mph 17.3 mph N/A   Clear
6:53 PM 91.9 °F 12.9 °F 5% 29.75 in 10.0 mi NNW 11.5 mph - N/A   Clear
7:53 PM 88.0 °F 10.9 °F 6% 29.75 in 10.0 mi NNW 8.1 mph - N/A   Clear
8:53 PM 84.0 °F 14.0 °F 7% 29.75 in 10.0 mi NNW 5.8 mph - N/A   Clear
9:53 PM 82.0 °F 14.0 °F 8% 29.76 in 10.0 mi WNW 3.5 mph - N/A   Clear
10:53 PM 75.9 °F 17.1 °F 11% 29.77 in 10.0 mi WSW 6.9 mph - N/A   Clear
11:53 PM 75.0 °F 19.0 °F 12% 29.77 in 10.0 mi Calm Calm - N/A   Clear